Regional Weather Roundup
Issued by NWS Green Bay, WI

Home | Current Version | Previous Version | Text Only | Print | Product List | Glossary On
Versions: 1 2 3 4 5 6 7 8 9 10 11 12 13 14 15 16 17 18 19 20 21 22 23 24 25 26 27 28 29 30 31 32 33 34 35 36 37 38 39 40 41 42 43 44 45 46 47 48 49 50
000
ASUS43 KGRB 222100
RWRGRB

NORTH-CENTRAL AND NORTHEAST WISCONSIN REGIONAL WEATHER ROUNDUP
NATIONAL WEATHER SERVICE GREEN BAY WI
400 PM CDT FRI MAY 22 2015

WIZ005-009-010>012-018-019-222200-
NORTH CENTRAL WISCONSIN

CITY           SKY/WX    TMP DP  RH WIND       PRES   REMARKS
IRONWOOD       SUNNY     63  28  27 W5        30.19S
MANITOWISH WTR NOT AVBL
ARBOR VITAE    NOT AVBL
EAGLE RIVER    NOT AVBL
LAND O LAKES   NOT AVBL
RHINELANDER    SUNNY     67  26  21 W6        30.21F
PHILLIPS       NOT AVBL
ANTIGO         NOT AVBL
TOMAHAWK       NOT AVBL
MERRILL        NOT AVBL
$$

WIZ013-073-222200-
NORTHEAST WISCONSIN

CITY           SKY/WX    TMP DP  RH WIND       PRES   REMARKS
IRON MOUNTAIN  SUNNY     67  16  14 VRB6      30.18F
MARINETTE      SUNNY     57  32  38 SE17      30.24S
$$

WIZ017-030-035>037-045-222200-
CENTRAL WISCONSIN

CITY           SKY/WX    TMP DP  RH WIND       PRES   REMARKS
MEDFORD        NOT AVBL
WAUSAU         SUNNY     68  31  25 W10       30.20S
MOSINEE        SUNNY     66  36  32 S3        30.23S
MARSHFIELD     SUNNY     69  34  27 VRB5      30.22S
WISC RAPIDS    SUNNY     71  28  20 N9        30.22F
STEVENS POINT  NOT AVBL
WAUPACA        NOT AVBL
SHAWANO        NOT AVBL
CLINTONVILLE   NOT AVBL
$$

WIZ038-039-048-051-222200-
FOX VALLEY

CITY           SKY/WX    TMP DP  RH WIND       PRES   REMARKS
NWS GREEN BAY  SUNNY     69  31  24 SW7       30.22F
APPLETON       MOSUNNY   66  32  28 S8        30.22F
OSHKOSH        SUNNY     66  37  34 E8        30.22F
FOND DU LAC    SUNNY     69  33  26 MISG      30.23S
$$

WIZ022-050-052-222200-
EAST CENTRAL WISCONSIN

CITY           SKY/WX    TMP DP  RH WIND       PRES   REMARKS
STURGEON BAY   SUNNY     54  30  40 SE12      30.28S
MANITOWOC      NOT AVBL
SHEBOYGAN      SUNNY     59  26  28 S12       30.27R
$$

LMZ563-521-522-541>543-222200-
LAKESHORE

STATION/POSITION TIME  TEMP    WIND        PRES    VSBY  WAVE
                       AIR SEA DIR/SP/G                  HT/PER
                 (UTC) (F)     (DEG/KT/KT) (MB)    (MI)  (FT/S)
SHEBOYGAN LKSHOR 2000          120/ 11/ 12 1025.8F
KEWAUNEE LKSHORE 2000   44     150/  5/  7 1024.6S
NORTHPORT PIER   2000   45     140/ 12/ 15 1024.7F
N MID LAKE BUOY  1950   39 36  160/  8/ 10 1025.7F         1
SISTER BAY LKSHO 2002   56     180/ 11/ 14   N/A
CHAMBERS ISLAND  2000   56     100/  9/ 13 1024.4S
MENOMINEE LKSHOR 2000   53     130/ 15/ 18 1024.5F
$$



USA.gov is the U.S. government's official web portal to all federal, state and local government web resources and services.